When you browse on this site, cookies collect data to enhance your experience and personalize the content and advertising you see.
Visit our Privacy Policy to learn more. By continuing to use the site, you agree to this use of cookies and data.
  • en France
  • Liste des pays
  • À 7 jours
  • Température de l'eau
  • Carte satellitaire
  • Carte météo
  • Widgets météo
  • user-avatar
    Se connecter

    Météo par heure à Potosi

    Ce jour, 22 Mai, Mercredi

    Heure Température Précipitation Vent Pression Humidité
    00:00 +2°C° 0 mm 3 m/s 465 mmHg 76%
    01:00 +2°C° 0 mm 3 m/s 465 mmHg 77%
    02:00 +2°C° 0 mm 3 m/s 465 mmHg 79%
    03:00 +2°C° 0 mm 3 m/s 464 mmHg 77%
    04:00 +1°C° 0 mm 3 m/s 464 mmHg 74%
    05:00 +1°C° 0 mm 3 m/s 463 mmHg 72%
    06:00 +1°C° 0 mm 3 m/s 464 mmHg 64%
    07:00 +2°C° 0 mm 3 m/s 465 mmHg 56%
    08:00 +3°C° 0 mm 3 m/s 465 mmHg 48%
    09:00 +5°C° 0 mm 5 m/s 467 mmHg 37%
    10:00 +8°C° 0 mm 6 m/s 469 mmHg 25%
    11:00 +10°C° 0 mm 8 m/s 470 mmHg 14%
    12:00 +11°C° 0 mm 10 m/s 470 mmHg 14%
    13:00 +12°C° 0 mm 11 m/s 470 mmHg 14%
    14:00 +13°C° 0 mm 12 m/s 470 mmHg 14%
    15:00 +12°C° 0 mm 12 m/s 469 mmHg 12%
    16:00 +11°C° 0 mm 11 m/s 468 mmHg 10%
    17:00 +11°C° 0 mm 10 m/s 467 mmHg 8%
    18:00 +9°C° 0 mm 8 m/s 467 mmHg 12%
    19:00 +7°C° 0 mm 5 m/s 466 mmHg 16%
    20:00 +5°C° 0 mm 3 m/s 465 mmHg 20%
    21:00 +5°C° 0 mm 2 m/s 465 mmHg 28%
    22:00 +4°C° 0 mm 2 m/s 465 mmHg 35%
    23:00 +3°C° 0 mm 2 m/s 465 mmHg 43%

    Demain, 23 Mai, Jeudi

    Heure Température Précipitation Vent Pression Humidité
    00:00 +3°C° 0 mm 2 m/s 465 mmHg 42%
    01:00 +2°C° 0 mm 2 m/s 464 mmHg 41%
    02:00 +2°C° 0 mm 2 m/s 464 mmHg 41%
    03:00 +1°C° 0 mm 3 m/s 464 mmHg 34%
    04:00 0°C° 0 mm 3 m/s 463 mmHg 28%
    05:00 0°C° 0 mm 3 m/s 463 mmHg 22%
    06:00 +1°C° 0 mm 3 m/s 464 mmHg 19%
    07:00 +2°C° 0 mm 3 m/s 465 mmHg 16%
    08:00 +3°C° 0 mm 3 m/s 466 mmHg 13%
    09:00 +4°C° 0 mm 6 m/s 468 mmHg 11%
    10:00 +6°C° 0 mm 9 m/s 469 mmHg 9%
    11:00 +9°C° 0 mm 12 m/s 471 mmHg 6%
    12:00 +9°C° 0 mm 11 m/s 470 mmHg 7%
    13:00 +9°C° 0 mm 11 m/s 469 mmHg 7%
    14:00 +9°C° 0 mm 10 m/s 469 mmHg 8%
    15:00 +8°C° 0 mm 9 m/s 468 mmHg 8%
    16:00 +9°C° 0 mm 8 m/s 468 mmHg 8%
    17:00 +8°C° 0 mm 7 m/s 467 mmHg 9%
    18:00 +5°C° 0 mm 6 m/s 467 mmHg 10%
    19:00 +5°C° 0 mm 4 m/s 466 mmHg 11%
    20:00 +3°C° 0 mm 3 m/s 466 mmHg 12%
    21:00 +3°C° 0 mm 2 m/s 465 mmHg 15%
    22:00 +2°C° 0 mm 2 m/s 465 mmHg 17%
    23:00 +1°C° 0 mm 2 m/s 465 mmHg 19%

    Après-demain, 24 Mai, Vendredi

    Heure Température Précipitation Vent Pression Humidité
    00:00 -1°C° 0 mm 2 m/s 464 mmHg 22%
    01:00 0°C° 0 mm 1 m/s 463 mmHg 24%
    02:00 0°C° 0 mm 1 m/s 462 mmHg 26%
    03:00 -1°C° 0 mm 1 m/s 462 mmHg 23%
    04:00 -1°C° 0 mm 1 m/s 461 mmHg 21%
    05:00 -2°C° 0 mm 1 m/s 461 mmHg 18%
    06:00 0°C° 0 mm 1 m/s 463 mmHg 15%
    07:00 +1°C° 0 mm 1 m/s 464 mmHg 13%
    08:00 +3°C° 0 mm 1 m/s 466 mmHg 10%
    09:00 +5°C° 0 mm 1 m/s 467 mmHg 9%
    10:00 +7°C° 0 mm 1 m/s 468 mmHg 7%
    11:00 +9°C° 0 mm 1 m/s 469 mmHg 5%
    12:00 +9°C° 0 mm 1 m/s 469 mmHg 5%
    13:00 +9°C° 0 mm 2 m/s 469 mmHg 5%
    14:00 +10°C° 0 mm 2 m/s 469 mmHg 6%
    15:00 +10°C° 0 mm 2 m/s 468 mmHg 7%
    16:00 +10°C° 0 mm 2 m/s 468 mmHg 9%
    17:00 +9°C° 0 mm 2 m/s 467 mmHg 11%
    18:00 +7°C° 0 mm 2 m/s 466 mmHg 19%
    19:00 +5°C° 0 mm 2 m/s 465 mmHg 26%
    20:00 +4°C° 0 mm 1 m/s 464 mmHg 34%
    21:00 +4°C° 0 mm 1 m/s 464 mmHg 30%
    22:00 +2°C° 0 mm 2 m/s 464 mmHg 26%
    23:00 +2°C° 0 mm 2 m/s 464 mmHg 23%

    25 Mai, Samedi

    Heure Température Précipitation Vent Pression Humidité
    00:00 +2°C° 0 mm 2 m/s 463 mmHg 18%
    01:00 +1°C° 0 mm 2 m/s 463 mmHg 14%
    02:00 +1°C° 0 mm 2 m/s 462 mmHg 9%
    03:00 +1°C° 0 mm 2 m/s 462 mmHg 9%
    04:00 -1°C° 0 mm 2 m/s 462 mmHg 8%
    05:00 -1°C° 0 mm 2 m/s 461 mmHg 8%
    06:00 +1°C° 0 mm 2 m/s 463 mmHg 9%
    07:00 +3°C° 0 mm 2 m/s 464 mmHg 9%
    08:00 +4°C° 0 mm 2 m/s 466 mmHg 10%
    09:00 +6°C° 0 mm 2 m/s 467 mmHg 9%
    10:00 +8°C° 0 mm 2 m/s 468 mmHg 7%
    11:00 +12°C° 0 mm 2 m/s 469 mmHg 6%
    12:00 +13°C° 0 mm 2 m/s 469 mmHg 5%
    13:00 +13°C° 0 mm 3 m/s 469 mmHg 5%
    14:00 +14°C° 0 mm 4 m/s 469 mmHg 5%
    15:00 +13°C° 0 mm 4 m/s 469 mmHg 6%
    16:00 +13°C° 0 mm 4 m/s 468 mmHg 7%
    17:00 +12°C° 0 mm 5 m/s 468 mmHg 8%
    18:00 +10°C° 0 mm 4 m/s 467 mmHg 10%
    19:00 +8°C° 0 mm 3 m/s 466 mmHg 12%
    20:00 +6°C° 0 mm 2 m/s 465 mmHg 14%
    21:00 +5°C° 0 mm 2 m/s 464 mmHg 13%
    22:00 +5°C° 0 mm 2 m/s 464 mmHg 12%
    23:00 +4°C° 0 mm 2 m/s 464 mmHg 12%

    26 Mai, Dimanche

    Heure Température Précipitation Vent Pression Humidité
    00:00 +4°C° 0 mm 2 m/s 464 mmHg 11%
    01:00 +3°C° 0 mm 2 m/s 463 mmHg 11%
    02:00 +3°C° 0 mm 2 m/s 463 mmHg 10%
    03:00 +1°C° 0 mm 3 m/s 463 mmHg 10%
    04:00 +1°C° 0 mm 3 m/s 462 mmHg 11%
    05:00 0°C° 0 mm 3 m/s 462 mmHg 11%
    06:00 +1°C° 0 mm 3 m/s 463 mmHg 11%
    07:00 +2°C° 0 mm 3 m/s 464 mmHg 12%
    08:00 +3°C° 0 mm 3 m/s 465 mmHg 12%
    09:00 +7°C° 0 mm 3 m/s 467 mmHg 10%
    10:00 +10°C° 0 mm 4 m/s 468 mmHg 8%
    11:00 +12°C° 0 mm 5 m/s 470 mmHg 6%
    12:00 +13°C° 0 mm 6 m/s 470 mmHg 6%
    13:00 +14°C° 0 mm 7 m/s 470 mmHg 6%
    14:00 +15°C° 0 mm 8 m/s 469 mmHg 6%
    15:00 +13°C° 0 mm 8 m/s 469 mmHg 7%
    16:00 +12°C° 0 mm 8 m/s 468 mmHg 8%
    17:00 +11°C° 0 mm 7 m/s 467 mmHg 9%
    18:00 +9°C° 0 mm 6 m/s 466 mmHg 11%
    19:00 +7°C° 0 mm 4 m/s 465 mmHg 14%
    20:00 +6°C° 0 mm 2 m/s 464 mmHg 16%
    21:00 +6°C° 0 mm 2 m/s 464 mmHg 16%
    22:00 +5°C° 0 mm 2 m/s 464 mmHg 16%
    23:00 +4°C° 0 mm 2 m/s 464 mmHg 16%

    27 Mai, Lundi

    Heure Température Précipitation Vent Pression Humidité
    00:00 +4°C° 0 mm 2 m/s 464 mmHg 15%
    01:00 +2°C° 0 mm 3 m/s 463 mmHg 15%
    02:00 +2°C° 0 mm 3 m/s 463 mmHg 14%
    03:00 +1°C° 0 mm 3 m/s 463 mmHg 15%
    04:00 +1°C° 0 mm 3 m/s 463 mmHg 16%
    05:00 +1°C° 0 mm 3 m/s 462 mmHg 17%
    06:00 +1°C° 0 mm 3 m/s 463 mmHg 17%
    07:00 +1°C° 0 mm 4 m/s 464 mmHg 17%
    08:00 +1°C° 0 mm 4 m/s 465 mmHg 18%
    09:00 +4°C° 0 mm 7 m/s 466 mmHg 15%
    10:00 +7°C° 0 mm 10 m/s 468 mmHg 12%
    11:00 +9°C° 0 mm 13 m/s 469 mmHg 9%
    12:00 +10°C° 0 mm 13 m/s 469 mmHg 9%
    13:00 +10°C° 0 mm 13 m/s 469 mmHg 9%
    14:00 +12°C° 0 mm 13 m/s 468 mmHg 9%
    15:00 +10°C° 0 mm 12 m/s 468 mmHg 9%
    16:00 +9°C° 0 mm 11 m/s 467 mmHg 9%
    17:00 +9°C° 0 mm 10 m/s 467 mmHg 8%
    18:00 +7°C° 0 mm 8 m/s 466 mmHg 11%
    19:00 +5°C° 0 mm 6 m/s 466 mmHg 13%
    20:00 +4°C° 0 mm 4 m/s 465 mmHg 15%
    21:00 +3°C° 0 mm 3 m/s 465 mmHg 16%
    22:00 +2°C° 0 mm 3 m/s 465 mmHg 17%
    23:00 +2°C° 0 mm 3 m/s 465 mmHg 18%
    Voir plus